Flag for Hungary Weather past 2 weeks in Pécs, Hungary

Now
61 °F

Overcast.


Feels Like: 61 °F
Forecast: 63 / 76 °F
Wind: 6 mph from North

Location: Pecs / Pogany

Current Time: Sep 3, 2014 at 1:55:46 AM

Latest Report: Sep 3, 2014 at 1:00 AM


Visibility: 16 mi

Pressure: 29.89 "Hg

Humidity: 91%

Dew point: 58 °F

Location of PécsLocation

Historic Weather in Pécs — Graph

°F

Pécs temperature yesterday

Maximum temperature yesterday: 65 °F (at 1:00 PM)
Minimum temperature yesterday: 59 °F (at 7:00 AM)
Average temperature yesterday: 61 °F

Past Weeks' High & Low Weather Summary

 TemperatureHumidityPressure
High80 °F (Aug 19, 2:00 PM)98% (Aug 27, 9:00 AM)30.16 "Hg (Aug 27, 9:00 AM)
Low51 °F (Aug 28, 6:00 AM)33% (Aug 25, 4:00 PM)29.69 "Hg (Sep 1, 6:00 AM)
Average65 °F71%29.97 "Hg
* Reported Midnight between Aug 18 and Aug 19 — Midnight between Sep 2 and Sep 3, Pécs, Weather by CustomWeather, © 2014

Note: Actual official high and low records may vary slightly from our data, if they occured in-between our weather recording intervals... More about our weather records

Advertising

Pécs weather history for previous 24 hours

 ConditionsComfort  
Time TempWeatherWind HumidityBarometerVisibility
12:00 AM
Sep 3
60 °FOvercast.2 mph94%29.90 "Hg11 mi
11:00 PM
Sep 2
60 °FOvercast.2 mph94%29.89 "Hg9 mi
10:00 PM60 °FThunderstorms. Overcast.5 mph94%29.89 "Hg9 mi
9:00 PM60 °FOvercast.3 mph93%29.90 "Hg9 mi
8:00 PM61 °FOvercast.6 mph92%29.89 "Hg11 mi
7:00 PM62 °FOvercast.8 mph91%29.88 "Hg19 mi
6:00 PM62 °FOvercast.7 mph89%29.88 "Hg16 mi
5:00 PM62 °FOvercast.6 mph90%29.88 "Hg12 mi
4:00 PM61 °FLight rain. Overcast.5 mph93%29.88 "Hg12 mi
3:00 PM62 °FLight rain. Low clouds.3 mph94%29.88 "Hg5 mi
2:00 PM63 °FLight rain. Overcast.3 mph85%29.89 "Hg11 mi
1:00 PM65 °FOvercast.3 mph82%29.88 "Hg25 mi
12:00 PM63 °FLow clouds.5 mph83%29.88 "Hg25 mi
11:00 AM63 °FLow clouds.6 mph84%29.87 "Hg37 mi
10:00 AM62 °FLow clouds.7 mph86%29.86 "Hg37 mi
9:00 AM61 °FLow clouds.8 mph88%29.85 "Hg37 mi
8:00 AM59 °FOvercast.8 mph90%29.85 "Hg31 mi
7:00 AM59 °FOvercast.9 mph90%29.84 "Hg25 mi
6:00 AM60 °FOvercast.8 mph91%29.83 "Hg12 mi
5:00 AM60 °FOvercast.8 mph92%29.83 "Hg12 mi
4:00 AM60 °FOvercast.8 mph92%29.83 "Hg12 mi
3:00 AM60 °FOvercast.7 mph93%29.83 "Hg12 mi
2:00 AM60 °FLight rain. Overcast.8 mph95%29.84 "Hg6 mi
1:00 AM60 °FOvercast.6 mph91%29.84 "Hg12 mi
Weather by CustomWeather, © 2014

See weather overviewHow to use our weather pages